Arad, Romania

7:15 PM EEST on September 26, 2016 (GMT +0300)
Arad

Weather History for LRAR - May, 2013

Change the Weather History Date:

Wednesday, May 8, 2013

  Actual Average Record
Temperature  
Mean Temperature 68 °F -  
Max Temperature 81 °F 71 °F 93 °F (2003)
Min Temperature 54 °F 49 °F 39 °F (2016)
Cooling Degree Days 2    
Growing Degree Days 18 (Base 50)    
Moisture  
Dew Point 56 °F    
Average Humidity 66    
Maximum Humidity 100    
Minimum Humidity 21    
Precipitation  
Precipitation 0.00 in - - ()
Sea Level Pressure  
Sea Level Pressure 30.01 in    
Wind  
Wind Speed 3 mph ()    
Max Wind Speed 10 mph    
Max Gust Speed -    
Visibility 11.4 miles    
Events      
Averages and records for this station are not official NWS values.
T = Trace of Precipitation, MM = Missing Value Source: Averaged Metar Reports

Daily Weather History Graph

Daily Weather History Graph

Search for Another Location

Airport or City:

Trip Planner

Search our weather history database for the weather conditions in past years. The results will help you decide how hot, cold, wet, or windy it might be!

Date:

Astronomy

May. 08, 2013 Rise Set
Actual Time 6:11 AM EEST 8:52 PM EEST
Civil Twilight 5:37 AM EEST 9:26 PM EEST
Nautical Twilight 4:53 AM EEST 10:10 PM EEST
Astronomical Twilight 4:03 AM EEST 11:00 PM EEST
Moon 5:14 AM EEST (5/8) 7:29 PM EEST (5/8)
Length of Visible Light 15h 49m
Length of Day
14h 41m
Waning Crescent, 3% of the Moon is Illuminated
May 8
Waning Crescent
May 10
New
May 18
First Quarter
May 25
Full
May 31
Last Quarter

Hourly Weather History & Observations

Time (EEST) Temp. Dew Point Humidity Pressure Visibility Wind Dir Wind Speed Gust Speed Precip Events Conditions
12:00 AM 61 °F 59 °F 91% 30.02 in 12 mi Calm Calm - -  
12:00 AM 64.4 °F 62.6 °F 94% 30.01 in - Variable 2.3 mph - N/A   Clear
1:00 AM 61 °F 58 °F 88% 30.02 in 12 mi ENE 2.2 mph - -  
1:00 AM 62.6 °F 62.6 °F 100% 30.01 in - Variable 1.2 mph - N/A   Clear
2:00 AM 58 °F 56 °F 89% 30.01 in 12 mi Calm Calm - -  
2:00 AM 59.0 °F 59.0 °F 100% 30.01 in - Calm Calm - N/A   Clear
3:00 AM 57 °F 56 °F 93% 30.02 in 12 mi Calm Calm - -  
3:00 AM 59.0 °F 59.0 °F 100% 30.01 in - Variable 2.3 mph - N/A   Clear
4:00 AM 60 °F 57 °F 88% 30.04 in 12 mi SSW 6.7 mph - -  
4:00 AM 60.8 °F 60.8 °F 100% 30.04 in - SW 5.8 mph - N/A   Clear
5:00 AM 60 °F 57 °F 86% 30.03 in 12 mi WSW 2.2 mph - -   Partly Cloudy
5:00 AM 59.0 °F 59.0 °F 100% 30.01 in - Calm Calm - N/A   Clear
5:30 AM 59.0 °F 59.0 °F 100% 30.04 in - Variable 1.2 mph - N/A   Clear
6:00 AM 56 °F 54 °F 93% 30.04 in 12 mi Calm Calm - -   Partly Cloudy
6:00 AM 57.2 °F 57.2 °F 100% 30.04 in - East 4.6 mph - N/A   Clear
6:30 AM 59.0 °F 59.0 °F 100% 30.04 in - SSE 3.5 mph - N/A   Clear
7:00 AM 56 °F 54 °F 92% 30.05 in 12 mi South 2.2 mph - -   Partly Cloudy
7:00 AM 57.2 °F 57.2 °F 100% 30.04 in - Calm Calm - N/A   Clear
7:30 AM 60.8 °F 60.8 °F 100% 30.04 in 6.2 mi East 3.5 mph - N/A   Partly Cloudy
8:00 AM 60 °F 58 °F 89% 30.04 in 12 mi East 2.2 mph - -   Partly Cloudy
8:00 AM 62.6 °F 62.6 °F 100% 30.04 in 6.2 mi East 4.6 mph - N/A   Partly Cloudy
8:30 AM 64.4 °F 62.6 °F 94% 30.04 in 6.2 mi East 5.8 mph - N/A   Partly Cloudy
9:00 AM 64 °F 58 °F 77% 30.04 in 12 mi ENE 2.2 mph - -   Partly Cloudy
9:00 AM 66.2 °F 60.8 °F 83% 30.04 in - ENE 4.6 mph - N/A   Clear
9:30 AM 68.0 °F 60.8 °F 78% 30.04 in - ENE 5.8 mph - N/A   Clear
10:00 AM 67 °F 60 °F 72% 30.03 in 12 mi ENE 2.2 mph - -   Mostly Cloudy
10:00 AM 69.8 °F 59.0 °F 68% 30.04 in - ENE 9.2 mph - N/A   Clear
10:30 AM 71.6 °F 59.0 °F 64% 30.04 in - ENE 10.4 mph - N/A   Clear
11:00 AM 72 °F 55 °F 44% 30.03 in 12 mi ENE 4.5 mph - -   Partly Cloudy
11:00 AM 73.4 °F 59.0 °F 61% 30.04 in - East 6.9 mph - N/A   Clear
11:30 AM 73.4 °F 57.2 °F 57% 30.04 in - ESE 6.9 mph - N/A   Clear
12:00 PM 70 °F 53 °F 45% 30.04 in 12 mi ESE 4.5 mph - -   Mostly Cloudy
12:00 PM 73.4 °F 51.8 °F 47% 30.04 in - ESE 5.8 mph - N/A   Clear
12:30 PM 75.2 °F 55.4 °F 50% 30.04 in - ESE 3.5 mph - N/A   Clear
1:00 PM 75 °F 52 °F 34% 30.02 in 12 mi ESE 2.2 mph - -   Scattered Clouds
1:00 PM 75.2 °F 53.6 °F 47% 30.01 in - ESE 4.6 mph - N/A   Clear
1:30 PM 75.2 °F 55.4 °F 50% 30.01 in - South 4.6 mph - N/A   Clear
2:00 PM 76 °F 53 °F 34% 30.01 in 12 mi South 4.5 mph - -   Clear
2:00 PM 77.0 °F 51.8 °F 41% 30.01 in - ESE 4.6 mph - N/A   Clear
2:30 PM 78.8 °F 48.2 °F 34% 30.01 in - ESE 3.5 mph - N/A   Clear
3:00 PM 81 °F 50 °F 23% 29.99 in 12 mi Calm Calm - -   Scattered Clouds
3:30 PM 80.6 °F 51.8 °F 37% 29.98 in - Variable 2.3 mph - N/A   Clear
4:00 PM 81 °F 48 °F 21% 29.98 in 12 mi Calm Calm - -   Scattered Clouds
4:00 PM 78.8 °F 53.6 °F 42% 29.98 in - WSW 4.6 mph - N/A   Clear
4:30 PM 78.8 °F 51.8 °F 39% 29.98 in - West 5.8 mph - N/A   Clear
5:00 PM 79 °F 49 °F 25% 29.97 in 12 mi Calm Calm - -   Scattered Clouds
5:00 PM 77.0 °F 57.2 °F 50% 29.98 in - SW 4.6 mph - N/A   Clear
5:30 PM 78.8 °F 55.4 °F 44% 29.98 in - West 3.5 mph - N/A   Clear
6:00 PM 80 °F 52 °F 27% 29.95 in 12 mi WSW 2.2 mph - -   Scattered Clouds
6:00 PM 78.8 °F 53.6 °F 42% 29.95 in - West 4.6 mph - N/A   Clear
6:30 PM 78.8 °F 51.8 °F 39% 29.95 in - West 5.8 mph - N/A   Clear
7:00 PM 80 °F 51 °F 25% 29.94 in 12 mi WSW 2.2 mph - -   Scattered Clouds
7:00 PM 80.6 °F 48.2 °F 32% 29.95 in - WSW 3.5 mph - N/A   Clear
7:30 PM 77.0 °F 53.6 °F 44% 29.95 in - West 3.5 mph - N/A   Clear
8:00 PM 77 °F 52 °F 31% 29.95 in 12 mi WSW 2.2 mph - -   Scattered Clouds
8:00 PM 73.4 °F 62.6 °F 69% 29.98 in - WSW 5.8 mph - N/A   Clear
8:30 PM 71.6 °F 60.8 °F 69% 29.98 in - WSW 5.8 mph - N/A   Clear
9:00 PM 71 °F 58 °F 53% 29.97 in 12 mi WSW 2.2 mph - -   Scattered Clouds
9:00 PM 69.8 °F 60.8 °F 73% 29.98 in - WSW 4.6 mph - N/A   Clear
10:00 PM 68 °F 56 °F 58% 30.00 in 12 mi WSW 2.2 mph - -   Scattered Clouds
10:00 PM 66.2 °F 59.0 °F 78% 30.01 in - WSW 4.6 mph - N/A   Clear
11:00 PM 65 °F 55 °F 62% 30.02 in 12 mi SW 4.5 mph - -  
11:00 PM 66.2 °F 59.0 °F 78% 30.01 in - WSW 4.6 mph - N/A   Clear